• In Hungary
  • List of Countries
  • For 7 days
  • Water Temperature
  • Satellite Maps
  • Weather Map
  • News
  • Weather Widgets
  • user-avatar
    Login

    Hourly Weather Ischgl

    Today, 21 May, Monday

    Time Temperature Precipitation Wind Pressure Humidity
    00:00 -1°C° 0 mm 2 mps 573 mmHg 93%
    01:00 -1°C° 0 mm 3 mps 573 mmHg 94%
    02:00 -1°C° 0 mm 2 mps 573 mmHg 93%
    03:00 -1°C° 0 mm 2 mps 573 mmHg 93%
    04:00 -2°C° 0 mm 2 mps 573 mmHg 93%
    05:00 -1°C° 0 mm 2 mps 573 mmHg 90%
    06:00 +1°C° 0 mm 2 mps 574 mmHg 88%
    07:00 +3°C° 0 mm 2 mps 574 mmHg 85%
    08:00 +5°C° 0 mm 2 mps 575 mmHg 78%
    09:00 +6°C° 0 mm 2 mps 575 mmHg 71%
    10:00 +8°C° 0 mm 2 mps 576 mmHg 65%
    11:00 +8°C° 0.3 mm 2 mps 576 mmHg 62%
    12:00 +9°C° 0.3 mm 2 mps 576 mmHg 60%
    13:00 +9°C° 0 mm 2 mps 576 mmHg 60%
    14:00 +9°C° 0.4 mm 2 mps 576 mmHg 61%
    15:00 +10°C° 0.4 mm 1 mps 576 mmHg 61%
    16:00 +10°C° 0.4 mm 1 mps 575 mmHg 62%
    17:00 +9°C° 0.4 mm 1 mps 575 mmHg 69%
    18:00 +7°C° 0.4 mm 1 mps 574 mmHg 76%
    19:00 +6°C° 0.4 mm 1 mps 573 mmHg 83%
    20:00 +5°C° 0.1 mm 1 mps 573 mmHg 85%
    21:00 +4°C° 0.1 mm 1 mps 573 mmHg 87%
    22:00 +3°C° 0.1 mm 1 mps 572 mmHg 89%
    23:00 +1°C° 0 mm 2 mps 572 mmHg 90%

    Tomorrow, 22 May, Tuesday

    Time Temperature Precipitation Wind Pressure Humidity
    00:00 +1°C° 0 mm 2 mps 572 mmHg 90%
    01:00 +1°C° 0 mm 2 mps 572 mmHg 90%
    02:00 -1°C° 0 mm 2 mps 571 mmHg 90%
    03:00 -1°C° 0 mm 2 mps 571 mmHg 90%
    04:00 -1°C° 0 mm 2 mps 571 mmHg 89%
    05:00 +2°C° 0 mm 1 mps 572 mmHg 86%
    06:00 +4°C° 0 mm 1 mps 572 mmHg 82%
    07:00 +5°C° 0 mm 1 mps 573 mmHg 78%
    08:00 +6°C° 0 mm 1 mps 574 mmHg 72%
    09:00 +8°C° 0 mm 1 mps 575 mmHg 66%
    10:00 +9°C° 0 mm 1 mps 575 mmHg 60%
    11:00 +9°C° 0.3 mm 1 mps 575 mmHg 61%
    12:00 +9°C° 0.3 mm 1 mps 575 mmHg 62%
    13:00 +10°C° 0.3 mm 1 mps 576 mmHg 63%
    14:00 +9°C° 0.6 mm 1 mps 575 mmHg 67%
    15:00 +9°C° 0.6 mm 1 mps 575 mmHg 71%
    16:00 +9°C° 0.6 mm 1 mps 575 mmHg 74%
    17:00 +8°C° 0.6 mm 1 mps 574 mmHg 78%
    18:00 +7°C° 0.6 mm 1 mps 574 mmHg 82%
    19:00 +6°C° 0.6 mm 1 mps 574 mmHg 86%
    20:00 +5°C° 0.1 mm 1 mps 574 mmHg 88%
    21:00 +4°C° 0.1 mm 1 mps 574 mmHg 90%
    22:00 +3°C° 0.1 mm 1 mps 573 mmHg 92%
    23:00 +3°C° 0 mm 1 mps 573 mmHg 92%

    Day after tomorrow, 23 May, Wednesday

    Time Temperature Precipitation Wind Pressure Humidity
    00:00 +2°C° 0 mm 1 mps 573 mmHg 92%
    01:00 +2°C° 0 mm 1 mps 573 mmHg 91%
    02:00 +2°C° 0 mm 1 mps 573 mmHg 91%
    03:00 +1°C° 0 mm 1 mps 573 mmHg 91%
    04:00 +1°C° 0 mm 1 mps 573 mmHg 90%
    05:00 +3°C° 0 mm 1 mps 574 mmHg 86%
    06:00 +4°C° 0 mm 1 mps 575 mmHg 82%
    07:00 +5°C° 0 mm 0 mps 576 mmHg 78%
    08:00 +6°C° 0 mm 0 mps 577 mmHg 72%
    09:00 +9°C° 0 mm 1 mps 578 mmHg 67%
    10:00 +10°C° 0 mm 1 mps 578 mmHg 62%
    11:00 +11°C° 0.6 mm 1 mps 578 mmHg 62%
    12:00 +11°C° 0.6 mm 1 mps 578 mmHg 61%
    13:00 +12°C° 0.6 mm 1 mps 579 mmHg 61%
    14:00 +10°C° 1.4 mm 2 mps 578 mmHg 65%
    15:00 +10°C° 1.4 mm 2 mps 578 mmHg 68%
    16:00 +10°C° 1.4 mm 2 mps 578 mmHg 72%
    17:00 +10°C° 1.1 mm 1 mps 577 mmHg 77%
    18:00 +9°C° 1.1 mm 1 mps 577 mmHg 82%
    19:00 +7°C° 1.1 mm 0 mps 577 mmHg 88%
    20:00 +6°C° 0.5 mm 1 mps 576 mmHg 89%
    21:00 +5°C° 0.5 mm 1 mps 576 mmHg 91%
    22:00 +4°C° 0.5 mm 1 mps 576 mmHg 92%
    23:00 +4°C° 0 mm 1 mps 576 mmHg 92%

    24 May, Thursday

    Time Temperature Precipitation Wind Pressure Humidity
    00:00 +3°C° 0 mm 1 mps 575 mmHg 91%
    01:00 +3°C° 0 mm 1 mps 575 mmHg 91%
    02:00 +3°C° 0 mm 1 mps 575 mmHg 91%
    03:00 +3°C° 0 mm 1 mps 575 mmHg 90%
    04:00 +2°C° 0 mm 1 mps 575 mmHg 90%
    05:00 +4°C° 0.1 mm 1 mps 576 mmHg 86%
    06:00 +5°C° 0.1 mm 0 mps 577 mmHg 82%
    07:00 +6°C° 0.1 mm 0 mps 578 mmHg 77%
    08:00 +8°C° 0.2 mm 0 mps 578 mmHg 72%
    09:00 +10°C° 0.2 mm 1 mps 579 mmHg 66%
    10:00 +12°C° 0.2 mm 1 mps 580 mmHg 60%
    11:00 +12°C° 0.6 mm 1 mps 580 mmHg 59%
    12:00 +13°C° 0.6 mm 1 mps 580 mmHg 57%
    13:00 +13°C° 0.6 mm 2 mps 580 mmHg 56%
    14:00 +13°C° 1.1 mm 2 mps 579 mmHg 60%
    15:00 +12°C° 1.1 mm 2 mps 579 mmHg 65%
    16:00 +10°C° 1.1 mm 2 mps 579 mmHg 70%
    17:00 +10°C° 0.9 mm 1 mps 578 mmHg 75%
    18:00 +9°C° 0.9 mm 1 mps 578 mmHg 80%
    19:00 +8°C° 0.9 mm 0 mps 578 mmHg 86%
    20:00 +6°C° 0.3 mm 0 mps 577 mmHg 87%
    21:00 +6°C° 0.3 mm 1 mps 577 mmHg 88%
    22:00 +5°C° 0.3 mm 1 mps 577 mmHg 90%
    23:00 +5°C° 0 mm 1 mps 576 mmHg 90%

    25 May, Friday

    Time Temperature Precipitation Wind Pressure Humidity
    00:00 +4°C° 0 mm 1 mps 576 mmHg 90%
    01:00 +4°C° 0 mm 1 mps 576 mmHg 89%
    02:00 +3°C° 0 mm 1 mps 576 mmHg 89%
    03:00 +3°C° 0 mm 1 mps 576 mmHg 89%
    04:00 +3°C° 0 mm 1 mps 575 mmHg 88%
    05:00 +5°C° 0 mm 1 mps 576 mmHg 84%
    06:00 +6°C° 0 mm 1 mps 577 mmHg 79%
    07:00 +8°C° 0 mm 1 mps 578 mmHg 75%
    08:00 +10°C° 0 mm 1 mps 579 mmHg 66%
    09:00 +12°C° 0 mm 1 mps 580 mmHg 57%
    10:00 +14°C° 0 mm 1 mps 581 mmHg 48%
    11:00 +14°C° 0.1 mm 1 mps 581 mmHg 46%
    12:00 +15°C° 0.1 mm 1 mps 582 mmHg 44%
    13:00 +16°C° 0.1 mm 2 mps 582 mmHg 42%
    14:00 +15°C° 0.3 mm 2 mps 581 mmHg 44%
    15:00 +15°C° 0.3 mm 2 mps 581 mmHg 47%
    16:00 +14°C° 0.3 mm 2 mps 581 mmHg 50%
    17:00 +13°C° 0.5 mm 2 mps 580 mmHg 58%
    18:00 +12°C° 0.5 mm 1 mps 580 mmHg 67%
    19:00 +11°C° 0.5 mm 1 mps 579 mmHg 76%
    20:00 +9°C° 0.3 mm 1 mps 579 mmHg 79%
    21:00 +8°C° 0.3 mm 1 mps 579 mmHg 83%
    22:00 +7°C° 0.3 mm 1 mps 579 mmHg 86%
    23:00 +7°C° 0.1 mm 1 mps 578 mmHg 85%

    26 May, Saturday

    Time Temperature Precipitation Wind Pressure Humidity
    00:00 +6°C° 0.1 mm 1 mps 578 mmHg 85%
    01:00 +6°C° 0.1 mm 1 mps 578 mmHg 84%
    02:00 +5°C° 0 mm 1 mps 578 mmHg 83%
    03:00 +5°C° 0 mm 1 mps 577 mmHg 82%
    04:00 +4°C° 0 mm 1 mps 577 mmHg 80%
    05:00 +6°C° 0 mm 1 mps 578 mmHg 73%
    06:00 +8°C° 0 mm 1 mps 580 mmHg 67%
    07:00 +10°C° 0 mm 1 mps 581 mmHg 60%
    08:00 +12°C° 0 mm 1 mps 582 mmHg 53%
    09:00 +14°C° 0 mm 1 mps 582 mmHg 46%
    10:00 +16°C° 0 mm 1 mps 583 mmHg 39%
    11:00 +18°C° 0 mm 1 mps 583 mmHg 37%
    12:00 +18°C° 0 mm 1 mps 584 mmHg 35%
    13:00 +18°C° 0 mm 2 mps 584 mmHg 33%
    14:00 +18°C° 0 mm 2 mps 584 mmHg 34%
    15:00 +17°C° 0 mm 2 mps 583 mmHg 36%
    16:00 +17°C° 0 mm 2 mps 583 mmHg 38%
    17:00 +16°C° 0.1 mm 2 mps 583 mmHg 48%
    18:00 +14°C° 0.1 mm 2 mps 582 mmHg 59%
    19:00 +13°C° 0.1 mm 1 mps 582 mmHg 69%
    20:00 +11°C° 0.2 mm 1 mps 581 mmHg 73%
    21:00 +9°C° 0.2 mm 1 mps 581 mmHg 77%
    22:00 +8°C° 0.2 mm 1 mps 580 mmHg 81%
    23:00 +7°C° 0 mm 1 mps 580 mmHg 80%
    Show more